Location: Rowland
(34.5359°N, 79.2929°W)
Time: 19:44:36
(UTC+00:00)

Transit 2A Rocket - Pass Details

Date: 04 October 2022
Orbit: 589 x 911 km, 66.7° (Epoch: 03 December)

Event Time Altitude Azimuth Distance (km) Brightness Sun altitude
Rises 09:38:31 0° 186° (S) 2,875 - -20.4°
Exits shadow 09:38:55 - 185° (S) 2,723 7.7 -20.4°
Reaches altitude 10° 09:40:56 10° 178° (S) 1,944 7.0 -20.0°
Maximum altitude 09:44:54 36° 111° (ESE) 943 6.0 -19.2°
Drops below altitude 10° 09:48:49 10° 45° (NE) 1,917 7.8 -18.4°
Sets 09:51:10 0° 36° (NE) 2,829 8.6 -17.9°
